This is the latest recevied weather packets stored in our database for station/object K5GHS-1. If no packets are shown the sender has not sent any weather packets the latest 10 day(s).
| Time | Temp. | Humidity | Pressure | Rain* | Wind** | Luminosity | Snow |
|---|---|---|---|---|---|---|---|
| 1777671651 | 18.33° C | 58% | 1013.4 hPa | 0 mm | - | 99 W/m² | - |
| 1777671348 | 18.89° C | 58% | 1013.2 hPa | 0 mm | - | 120 W/m² | - |
| 1777671044 | 18.33° C | 57% | 1013.4 hPa | 0 mm | - | 127 W/m² | - |
| 1777670740 | 18.89° C | 56% | 1013.2 hPa | 0 mm | - | 132 W/m² | - |
| 1777670438 | 18.89° C | 57% | 1013.2 hPa | 0 mm | - | 140 W/m² | - |
| 1777670134 | 18.89° C | 59% | 1013.9 hPa | 0 mm | - | 177 W/m² | - |
| 1777669832 | 18.33° C | 58% | 1013.8 hPa | 0 mm | - | 200 W/m² | - |
| 1777669528 | 18.33° C | 56% | 1013.9 hPa | 0 mm | - | 193 W/m² | - |
| 1777669225 | 18.89° C | 57% | 1013.7 hPa | 0 mm | - | 190 W/m² | - |
| 1777668922 | 18.89° C | 56% | 1013.8 hPa | 0 mm | - | 205 W/m² | - |
| 1777668620 | 18.89° C | 57% | 1014.1 hPa | 0 mm | - | 216 W/m² | - |
| 1777668315 | 18.33° C | 56% | 1014.2 hPa | 0 mm | - | 242 W/m² | - |
| 1777668011 | 18.33° C | 57% | 1014 hPa | 0 mm | - | 242 W/m² | - |
| 1777667708 | 18.33° C | 57% | 1014.7 hPa | 0 mm | - | 180 W/m² | - |
| 1777667406 | 18.33° C | 57% | 1014.6 hPa | 0 mm | - | 172 W/m² | - |
| 1777667103 | 18.33° C | 56% | 1014.4 hPa | 0 mm | - | 118 W/m² | - |
| 1777666799 | 18.33° C | 56% | 1014.4 hPa | 0 mm | - | 123 W/m² | - |
| 1777666496 | 18.33° C | 56% | 1014.2 hPa | 0 mm | - | 121 W/m² | - |
| 1777666193 | 18.89° C | 55% | 1014.3 hPa | 0 mm | - | 132 W/m² | - |
| 1777665890 | 18.33° C | 55% | 1014 hPa | 0 mm | - | 176 W/m² | - |
| 1777665587 | 18.33° C | 55% | 1013.9 hPa | 0 mm | - | 178 W/m² | - |
| 1777665284 | 18.33° C | 55% | 1014.1 hPa | 0 mm | - | 149 W/m² | - |
| 1777664980 | 18.33° C | 55% | 1014 hPa | 0 mm | - | 115 W/m² | - |
| 1777664676 | 18.33° C | 56% | 1013.8 hPa | 0 mm | - | 117 W/m² | - |
| 1777664372 | 18.33° C | 55% | 1014.2 hPa | 0 mm | - | 119 W/m² | - |
* Rain latest hour (hover to see other rain measurements)
** Current wind speed in m/s (hover to see current wind gust speed)